119  
NZUS93 KARX 020610  
HRRWXR  
 
CURRENT HOURLY OBSERVATIONS ACROSS  
MUCH OF THE UPPER MISSISSIPPI VALLEY  
NATIONAL WEATHER SERVICE LA CROSSE WI  
100 AM CDT THU APR 02 2015  
 
   
..SOUTHEAST MINNESOTA
 
 
 
CITY SKY/WX TMP DP RH WIND PRES REMARKS  
ROCHESTER RAIN 54 52 93 NW7 29.65F FOG  
ROCHESTER/MAYO CLOUDY 56 56 100 S9 29.66R  
WINONA LGT RAIN 55 54 94 CALM 29.66S  
AUSTIN RAIN 55 54 94 SW9 29.67F  
ALBERT LEA RAIN 55 55 100 SW7 29.69R  
DODGE CENTER LGT RAIN 55 54 94 S5 29.67R  
PRESTON LGT RAIN 55 53 93 SW8 29.66F  
OWATONNA CLOUDY 54 52 94 SW8 29.67R  
FARIBAULT CLOUDY 54 54 100 SW7 29.66R  

 
   
..ELSEWHERE IN MINNESOTA
 
 
 
CITY SKY/WX TMP DP RH WIND PRES REMARKS  
MINNEAPOLIS CLOUDY 56 49 77 W10 29.61R  
INTNL FALLS CLOUDY 48 40 73 W15G22 29.43S  
DULUTH CLOUDY 50 39 66 W10 29.49R  
RED WING LGT RAIN 55 55 100 W13G20 29.62R  
REDWOOD FALLS CLOUDY 55 36 48 NW14 29.72R  
MANKATO CLOUDY 54 46 76 W8 29.69R  
WORTHINGTON CLOUDY 52 36 54 NW16 29.75R  
FAIRMONT CLOUDY 55 43 62 NW10 29.69S  

 
   
..SOUTHWEST WISCONSIN
 
 
 
CITY SKY/WX TMP DP RH WIND PRES REMARKS  
LA CROSSE LGT RAIN 65 46 50 SW15 29.65F  
PRAIRIE DU CHI MOCLDY 60 37 40 W12 29.73R  
BOSCOBEL MOCLDY 63 37 38 S9 29.67F  
LONE ROCK MOCLDY 62 37 39 S7 29.69S  
PLATTEVILLE PTCLDY 57 39 51 SE14 29.69F  
FORT MC COY CLOUDY 65 35 33 SW8 29.68R  
CAMP DOUGLAS CLOUDY 64 37 36 SW16G25 29.66R  
VIROQUA CLOUDY 61 38 42 SW17G23 29.70R  
WIS DELLS MOCLDY 60 36 39 SW16G22 29.69R  

 
   
..ELSEWHERE IN WISCONSIN
 
 
 
CITY SKY/WX TMP DP RH WIND PRES REMARKS  
MILWAUKEE PTCLDY 59 37 44 S13 29.76F  
MADISON PTCLDY 58 39 49 S10 29.72S  
GREEN BAY CLOUDY 58 41 53 SW14 29.66F  
EAU CLAIRE CLOUDY 56 54 93 S12 29.58F  
BLACK RVR FLS RAIN 57 49 72 CALM 29.66R  
MEDFORD LGT RAIN 53 47 82 SW6 29.63F  
WAUSAU CLOUDY 64 35 34 SW13G22 29.63R  
WIS RAPIDS CLOUDY 63 33 32 SW16G25 29.66R  
MARSHFIELD LGT RAIN 59 42 53 W12 29.66R  
RICE LAKE CLOUDY 56 51 82 SW13 29.56S  

 
   
..NORTHEAST IOWA
 
 
 
CITY SKY/WX TMP DP RH WIND PRES REMARKS  
DECORAH CLOUDY 61 45 55 SW6 29.68F  
MASON CITY RAIN 57 54 89 W8 29.67F  
CHARLES CITY CLOUDY 59 52 77 SW5 29.69F  
OELWEIN CLOUDY 57 45 62 W6 29.72R  

 
   
..ELSEWHERE IN IOWA
 
 
 
CITY SKY/WX TMP DP RH WIND PRES REMARKS  
DES MOINES CLOUDY 61 52 72 NW20 29.68R  
IOWA CITY PTCLDY 55 44 66 S8 29.71S  
FORT DODGE CLOUDY 55 52 88 CALM 29.67S  

 
   
..NORTHERN ILLINOIS
 
 
 
CITY SKY/WX TMP DP RH WIND PRES REMARKS  
CHICAGO-OHARE MOCLDY 59 35 40 S17G28 29.79F  
CHICAGO-MIDWAY MOCLDY 62 34 35 S15G29 29.80F  
MOLINE CLEAR 62 38 40 S9 29.72S  
ROCKFORD CLOUDY 56 39 53 S14 29.78S  
PEORIA PTCLDY 62 40 44 S15 29.77F  

 
 
NOTE: "FAIR" INDICATES FEW OR NO CLOUDS BELOW 12,000 FEET WITH NO  
SIGNIFICANT WEATHER AND/OR OBSTRUCTIONS TO VISIBILITY. WIND  
SPEEDS ARE IN MILES-PER-HOUR.  
 
CLICK HERE TO GO TO PREVIOUS BULLETINS.

The Nexlab WI Page
The Nexlab IA Page
The Nexlab MN Page Main Text Page